Regional Weather Roundup
Issued by NWS Bismarck, ND

Home | Current Version | Previous Version | Text Only | Print | Product List | Glossary On
Versions: 1 2 3 4 5 6 7 8 9 10 11 12 13 14 15 16 17 18 19 20 21 22 23 24 25 26 27 28 29 30 31 32 33 34 35 36 37 38 39 40 41 42 43 44 45 46 47 48 49 50
000
ASUS43 KBIS 300810
RWRBIS

NWR BROADCAST TEXT
NATIONAL WEATHER SERVICE BISMARCK ND
300 AM CDT SUN AUG 30 2015

NOTE: "FAIR" INDICATES FEW OR NO CLOUDS BELOW 12,000 FEET WITH NO
SIGNIFICANT WEATHER AND/OR OBSTRUCTIONS TO VISIBILITY.


CITY           SKY/WX    TMP DP  RH WIND       PRES   REMARKS
WILLISTON      MOCLDY    67  56  67 CALM      29.69F HAZE
MINOT          MOCLDY    75  60  59 CALM      29.70F
MINOT AFB      MOCLDY    68  62  81 SE6       29.70F
BISMARCK       MOCLDY    67  63  87 E6        29.78F
DICKINSON      MOCLDY    63  52  67 S8        29.76F
GARRISON         N/A     68  62  81 S5        29.75F
HETTINGER ARPT MOCLDY    67  52  58 SE5       29.81F
JAMESTOWN      MOCLDY    69  67  93 S12       29.80F FOG
CROSBY         FAIR      63  50  63 E3        29.69F HAZE
HARVEY         FAIR      70  64  83 S8        29.76F
HAZEN          FAIR      68  57  68 CALM      29.75F
LINTON         FAIR      66  66 100 S12       29.80F
OAKES            N/A     66  66 100 S12       29.84S
RUGBY          FAIR      72  64  78 S8        29.73F
STANLEY        FAIR      68  57  68 S6        29.75F
$$

CITY           SKY/WX    TMP DP  RH WIND       PRES   REMARKS
GRAND FORKS    PTCLDY    67  66  97 S10       29.78S
GRAND FORKS AF PTCLDY    67  67  98 S9        29.78S
DEVILS LAKE    MOCLDY    70  63  78 S7        29.76F
FARGO          FAIR      67  63  87 S12       29.83F
CAVALIER       FAIR      66  66 100 S7        29.75F FOG
GRAFTON        FAIR      66  66 100 SE8       29.78S
GWINNER          N/A     66  66 100 SW10      29.85F
LANGDON        FAIR      68  68 100 S7        29.79F
ROLLA          CLOUDY    68  59  73 S8        29.78F
WALHALLA       FAIR      64  64 100 MISG      29.76S FOG
$$

CITY           SKY/WX    TMP DP  RH WIND       PRES   REMARKS
ABERDEEN       CLEAR     65  63  93 S10       29.86F
MOBRIDGE       MOCLDY    69  65  86 SE10      29.80F
BUFFALO          N/A     67  51  56 S5        29.75F
RAPID CITY     PTCLDY    69  44  40 SE7       29.88F
GLASGOW        PTCLDY    67  46  47 E9        29.67F HAZE
SIDNEY         CLOUDY    72  54  53 CALM      29.66F
WOLF POINT     CLOUDY    68  50  52 CALM      29.67R HAZE
GLENDIVE       CLOUDY    75  48  38 S5        29.71F
MILES CITY     CLOUDY    78  46  32 S10       29.68F
BAKER          CLOUDY    71  47  42 SE7       29.77F
$$

CITY           SKY/WX    TMP DP  RH WIND       PRES   REMARKS
BILLINGS       CLOUDY    76  42  29 SW14      29.79F
GREAT FALLS    CLOUDY    64  50  60 CALM      29.82R HAZE
REGINA         CLOUDY    72  52  49 SE10      29.68S SMOKE
ESTEVAN          N/A     68  54  60 SE10      29.70F SMOKE
$$




USA.gov is the U.S. government's official web portal to all federal, state and local government web resources and services.